Location: Zagreb
(45.8000°N, 16.0000°E)
Time: 15:54:24
(UTC+02:00)

Vanguard 3 - All Passes

Search period start: 14 July 2024 00:00
Search period end: 24 July 2024 00:00
Orbit: 508 x 3231 km, 33.4° (Epoch: 13 July)

Date Brightness Start Highest point End Pass type
(mag) Time Alt. Az. Time Alt. Az. Time Alt. Az.
14 Jul - 00:24:08 10° S 00:33:52 19° SE 00:44:58 10° E visible
14 Jul - 02:30:41 10° SW 02:46:22 41° SSE 03:03:24 10° E visible
14 Jul - 04:42:36 10° WSW 05:01:00 55° S 05:17:34 10° ESE visible
14 Jul - 06:57:28 10° W 07:15:41 49° SSW 07:29:19 10° SE daylight
14 Jul - 09:14:54 10° W 09:28:06 27° SW 09:37:47 10° S daylight
15 Jul - 01:13:25 10° SSW 01:26:29 31° SE 01:41:52 10° E visible
15 Jul - 03:23:08 10° SW 03:40:08 50° SSE 03:57:47 10° E visible
15 Jul - 05:36:29 10° WSW 05:55:10 55° S 06:10:57 10° ESE daylight
15 Jul - 07:52:21 10° W 08:09:03 39° SSW 08:21:25 10° SSE daylight
15 Jul - 10:12:39 10° W 10:20:11 15° SW 10:26:28 10° SSW daylight
15 Jul - 23:58:07 10° S 00:07:26 19° SE 00:18:26 10° E visible
16 Jul - 02:04:44 10° SW 02:19:39 42° SSE 02:37:04 10° E visible
16 Jul - 04:16:21 10° WSW 04:34:14 55° S 04:51:40 10° ESE visible
16 Jul - 06:30:49 10° W 06:49:06 49° SSW 07:03:48 10° SE daylight
16 Jul - 08:48:01 10° W 09:01:50 27° SW 09:12:23 10° S daylight
17 Jul - 00:47:36 10° SSW 00:59:54 31° SE 01:15:16 10° E visible
17 Jul - 02:57:08 10° SW 03:13:21 51° SSE 03:31:33 10° E visible
17 Jul - 05:10:06 10° WSW 05:28:25 55° S 05:45:09 10° ESE daylight
17 Jul - 07:25:35 10° W 07:42:33 39° SSW 07:55:53 10° SSE daylight
17 Jul - 09:45:51 10° W 09:54:00 15° SW 10:00:55 10° SSW daylight
17 Jul - 23:32:21 10° S 23:41:03 19° SE 23:51:43 10° E visible
18 Jul - 01:38:58 10° SW 01:52:58 42° SSE 02:10:30 10° E visible
18 Jul - 03:50:16 10° WSW 04:07:25 55° S 04:25:34 10° ESE visible
18 Jul - 06:04:17 10° W 06:22:23 48° SSW 06:38:03 10° SE daylight
18 Jul - 08:21:12 10° W 08:35:24 27° SW 08:46:46 10° S daylight
19 Jul - 00:21:59 10° SSW 00:33:24 31° SE 00:48:28 10° E visible
19 Jul - 02:31:19 10° SW 02:46:36 51° SSE 03:05:05 10° E visible
19 Jul - 04:43:54 10° WSW 05:01:36 54° S 05:19:07 10° ESE visible
19 Jul - 06:58:57 10° W 07:15:54 38° SSW 07:30:07 10° SSE daylight
19 Jul - 09:19:08 10° W 09:27:39 15° SW 09:35:04 10° SSW daylight
19 Jul - 23:06:47 10° S 23:14:45 19° SE 23:24:49 10° E visible
20 Jul - 01:13:21 10° SW 01:26:22 43° SSE 01:43:45 10° E visible
20 Jul - 03:24:21 10° WSW 03:40:36 55° S 03:59:12 10° ESE visible
20 Jul - 05:37:55 10° W 05:55:35 48° SSW 06:12:04 10° SE daylight
20 Jul - 07:54:30 10° W 08:08:49 27° SW 08:20:54 10° S daylight
20 Jul - 23:56:30 10° SSW 00:07:00 31° SE 00:21:30 10° E visible
21 Jul - 02:05:40 10° SW 02:19:53 51° SSE 02:38:24 10° E visible
21 Jul - 04:17:51 10° WSW 04:34:44 54° S 04:52:51 10° ESE visible
21 Jul - 06:32:28 10° W 06:49:08 38° SSW 07:04:07 10° SSE daylight
21 Jul - 08:52:35 10° WSW 09:01:11 15° SW 09:08:54 10° SSW daylight
21 Jul - 22:41:22 10° S 22:48:34 18° SE 22:57:49 10° E visible
22 Jul - 00:47:53 10° SW 00:59:51 42° SSE 01:16:48 10° E visible
22 Jul - 02:58:36 10° WSW 03:13:49 55° S 03:32:37 10° ESE visible
22 Jul - 05:11:44 10° W 05:28:42 47° SSW 05:45:50 10° SE daylight
22 Jul - 07:27:57 10° W 07:42:08 26° SW 07:54:47 10° S daylight
22 Jul - 23:31:09 10° SSW 23:40:43 30° SE 23:54:26 10° E visible
23 Jul - 01:40:09 10° WSW 01:53:17 51° SSE 02:11:31 10° E visible
23 Jul - 03:51:57 10° W 04:07:53 53° S 04:26:21 10° ESE visible
23 Jul - 06:06:09 10° W 06:22:17 37° SSW 06:37:52 10° SSE daylight
23 Jul - 08:26:14 10° WSW 08:34:36 14° SW 08:42:21 10° SSW daylight
23 Jul - 22:16:07 10° S 22:22:29 18° SE 22:30:48 10° E visible
